EHI
0 0 0 0 0 0 1 1 0 0 1 1 0 0 0 0 0 0 0 0 0 0 0 0 0 0 0 0 0 0 0 0 0 0 0 0 0 0 0 0 0 0 0 0
0 0 0 0 0 0 1 1 0 1 2 1 0 0 0 0 0 0 0 0 0 0 0 0 0 0 0 0 0 0 0 0 0 0 0 0 0 0 0 0 0 0 0 0
0 0 0 0 0 0 1 1 0 1 1 1 0 0 0 0 0 0 0 0 0 0 0 0 0 0 0 0 0 0 0 0 0 0 0 0 0 0 0 0 0 0 0 0
0 0 0 0 0 0 0 0 0 0 0 0 0 0 0 0 0 0 0 0 0 0 0 0 0 0 0 0 0 0 0 0 0 0 0 0 0 0 0 0 0 0 0 0
0 0 0 0 0 0 0 0 0 0 0 0 0 0 0 0 0 0 0 0 0 0 0 0 0 0 0 0 0 0 0 0 0 0 0 0 0 0 0 0 0 0 0 0
0 0 0 0 0 0 0 0 0 0 0 0 0 0 0 0 0 0 0 0 0 0 0 0 0 0 0 0 0 0 0 0 0 0 0 0 0 0 0 0 0 0 0 0
0 0 0 0 0 0 0 0 0 0 0 0 0 0 0 0 0 0 0 0 0 0 0 0 0 0 0 0 0 0 0 0 0 0 0 0 0 0 0 0 0 0 0 0
0 0 0 0 0 0 0 0 0 0 0 0 0 0 0 0 0 0 0 0 0 0 0 0 0 0 0 0 0 0 0 0 0 0 0 0 0 0 0 0 0 0 0 0
0 0 0 0 0 0 0 0 0 0 0 0 0 0 0 0 0 0 0 0 0 0 0 0 0 0 0 0 0 0 0 0 0 0 0 0 0 0 0 0 0 0 0 0
0 0 0 0 0 0 0 0 0 0 0 0 0 0 0 0 0 0 0 0 0 0 0 0 0 0 0 0 0 0 0 0 0 0 0 0 0 0 0 0 0 0 0 0
0 0 0 0 0 0 0 0 0 0 0 0 0 0 0 0 0 0 0 0 0 0 0 0 0 0 0 0 0 0 0 0 0 0 0 0 0 0 0 0 0 0 0 0
0 0 0 0 0 0 0 0 0 0 0 0 0 0 0 0 0 0 0 0 0 0 0 0 0 0 0 0 0 0 0 0 0 0 0 0 0 0 0 0 0 0 0 0
0 0 0 0 0 0 0 0 0 0 0 0 0 0 0 0 0 0 0 0 0 0 0 0 0 0 0 0 0 0 0 0 0 0 0 0 0 0 0 0 0 0 0 0
0 0 0 0 0 0 0 0 0 0 0 0 0 0 0 0 0 0 0 0 0 0 0 0 0 0 0 0 0 0 0 0 0 0 0 0 0 0 0 0 0 0 0 0
0 0 0 0 0 0 0 0 0 0 0 0 0 0 0 0 0 0 0 0 0 0 0 0 0 0 0 0 0 0 0 0 0 0 0 0 0 0 0 0 0 0 0 0
0 0 0 0 0 0 0 0 0 0 0 0 0 0 0 0 0 0 0 0 0 0 0 0 0 0 0 0 0 0 0 0 0 0 0 0 0 0 0 0 0 0 0 0
0 0 0 0 0 0 0 0 0 0 0 0 0 0 0 0 0 0 0 0 0 0 0 0 0 0 0 0 0 0 0 0 0 0 0 0 0 0 0 0 0 0 0 0
0 0 0 0 0 0 0 0 0 0 0 0 0 0 0 0 0 0 0 0 0 0 0 0 0 0 0 0 0 0 0 0 0 0 0 0 0 0 0 0 0 0 0 0
0 0 0 0 0 0 0 0 0 0 0 0 0 0 0 0 0 0 0 0 0 0 0 0 0 0 0 0 0 0 0 0 0 0 0 0 0 0 0 0 0 0 0 0
0 0 0 0 0 0 0 0 0 0 0 0 0 0 0 0 0 0 0 0 0 0 0 0 0 0 0 0 0 0 0 0 0 0 0 0 0 0 0 0 0 0 0 0
0 0 0 0 0 0 0 0 0 0 0 0 0 0 0 0 0 0 0 0 0 0 0 0 0 0 0 0 0 0 0 0 0 0 0 0 0 0 0 0 0 0 0 0
0 0 0 0 0 0 0 0 0 0 0 0 0 0 0 0 0 0 0 0 0 0 0 0 0 0 0 0 0 0 0 0 0 0 0 0 0 0 0 0 0 0 0 0
0 0 0 0 0 0 0 0 0 0 0 0 0 0 0 0 0 0 0 0 0 0 0 0 0 0 0 0 0 0 0 0 0 0 0 0 0 0 0 0 0 0 0 0
0 0 0 0 0 0 0 0 0 0 0 0 0 0 0 0 0 0 0 0 0 0 0 0 0 0 0 0 0 0 0 0 0 0 0 0 0 0 0 0 0 0 0 0
0 0 0 0 0 0 0 0 0 0 0 0 0 0 0 0 0 0 0 0 0 0 0 0 0 0 0 0 0 0 0 0 0 0 0 0 0 0 0 0 0 0 0 0
0 0 0 0 0 0 0 0 0 0 0 0 0 0 0 0 0 0 0 0 0 0 0 0 0 0 0 0 0 0 0 0 0 0 0 0 0 0 0 0 0 0 0 0
0 0 0 0 0 0 0 0 0 0 0 0 0 0 0 0 0 0 0 0 0 0 0 0 0 0 0 0 0 0 0 0 0 0 0 0 0 0 0 0 0 0 0 0
Wind_Speed
2 3 2 6 8 7 3 2 3 3 6 8 8 10 10 10 11 11 11 11 11 10 9 9 9 9 9 9 9 9 9 9 8 8 8 8 8 7 7 6 6 5 6 5
3 2 6 10 12 8 6 4 5 7 5 6 9 9 10 10 10 11 10 10 10 10 9 9 9 8 8 8 7 7 8 8 7 7 7 6 6 6 6 5 5 5 4 4
2 4 4 8 9 7 6 5 2 3 4 10 10 9 8 8 9 10 10 10 9 9 8 8 7 7 7 7 6 7 6 6 5 5 5 4 5 5 4 3 3 3 3 3
1 4 5 0 2 5 8 8 7 9 9 9 10 9 7 6 8 9 9 9 8 7 7 6 6 6 6 6 6 6 5 5 4 4 4 4 4 3 2 2 2 1 1 2
3 3 2 1 3 2 3 4 4 9 11 11 12 10 7 6 8 8 8 8 7 6 6 6 5 5 6 5 5 5 5 4 4 4 4 4 3 2 1 1 1 0 1 2
3 2 1 2 6 3 5 3 1 6 10 9 6 4 3 6 9 9 9 7 6 5 6 6 4 5 6 5 5 4 3 3 3 3 4 3 2 1 1 1 1 1 1 1
2 2 1 4 7 3 2 2 2 4 6 5 2 4 8 9 8 8 7 7 6 6 5 4 4 5 5 4 3 3 3 3 3 2 3 2 2 1 2 2 3 3 3 2
2 2 2 5 4 3 3 2 4 5 5 8 10 11 10 9 8 7 7 6 6 5 4 3 4 5 5 3 2 2 3 3 2 2 1 3 3 3 3 4 4 4 4 4
3 3 3 2 3 3 5 5 5 6 8 11 11 10 9 8 7 6 6 5 4 5 4 3 3 4 4 1 2 3 2 1 0 1 2 2 3 3 3 3 3 3 3 3
4 2 3 5 5 5 6 7 7 9 10 9 10 9 8 7 6 5 5 4 4 5 4 3 2 3 2 2 2 3 2 0 0 1 1 2 2 3 3 2 3 2 3 2
4 3 5 4 5 7 9 10 10 9 8 8 10 9 8 6 5 4 4 3 4 4 4 3 2 1 1 2 2 2 0 0 0 1 2 3 3 2 2 1 2 2 0 1
4 5 5 3 4 8 9 9 10 10 8 7 8 8 7 5 4 4 4 4 4 4 4 3 3 2 1 2 2 2 1 1 0 1 2 3 3 2 3 1 2 2 2 1
5 5 6 7 6 7 8 8 9 9 9 8 7 7 6 5 4 4 4 5 5 4 4 3 3 2 1 2 2 2 1 1 1 2 2 3 3 3 1 2 3 3 3 4
10 10 7 6 6 8 10 10 9 9 8 7 6 6 6 5 5 5 5 4 4 4 4 3 2 1 1 1 2 2 2 2 2 2 2 3 3 2 2 1 1 3 4 5
6 8 8 8 9 9 9 10 10 8 7 7 6 6 6 6 5 4 4 4 4 4 3 3 2 1 2 1 2 2 2 1 1 1 2 2 3 3 2 1 0 1 2 4
9 11 11 11 10 10 10 10 9 7 7 6 6 6 6 6 5 5 4 5 5 4 2 2 1 1 1 1 2 1 1 3 3 3 3 3 3 3 2 1 1 1 2 3
11 10 10 10 10 9 9 9 8 7 7 7 7 7 7 6 5 4 3 3 4 3 2 2 0 2 1 1 2 1 1 2 4 3 3 3 3 3 3 2 1 0 1 2
11 11 11 12 10 10 10 9 9 8 7 7 7 7 7 6 5 4 3 3 3 2 0 1 1 1 2 1 1 1 2 2 3 3 3 3 3 3 3 2 1 0 1 2
11 12 11 10 10 10 9 9 8 8 7 7 7 6 6 5 4 4 3 4 3 1 3 2 3 2 1 2 1 1 2 3 3 3 3 4 3 3 3 2 1 0 1 2
10 11 11 11 10 10 9 8 8 7 7 7 7 6 5 4 4 4 4 3 3 4 3 1 2 2 2 2 3 1 3 4 4 4 3 3 3 3 2 2 1 0 1 2
12 12 12 11 10 10 9 9 8 8 7 8 7 6 5 4 4 4 4 2 3 2 1 2 2 1 2 3 3 1 3 4 4 4 4 3 3 3 2 2 1 0 1 1
11 11 11 11 10 8 8 8 8 8 7 7 6 6 5 4 3 3 3 3 3 2 2 2 1 1 3 3 2 2 3 4 4 4 4 4 3 3 3 2 1 0 0 1
9 10 11 10 10 8 7 7 8 7 7 7 7 6 6 5 4 4 2 3 2 3 3 2 1 2 4 3 2 2 3 4 4 4 4 4 4 3 3 2 1 1 0 1
9 10 10 9 9 8 7 6 6 6 6 6 6 6 6 4 2 2 3 4 5 4 2 2 1 2 4 2 2 3 3 4 4 4 4 3 3 3 3 2 2 1 1 2
10 9 9 10 8 6 6 6 5 5 5 4 4 5 5 5 5 4 4 4 5 4 2 3 2 1 1 1 2 3 3 3 4 4 4 4 3 3 3 3 3 2 2 2
9 8 8 8 7 6 5 5 4 4 4 3 3 3 3 3 5 4 4 4 5 4 3 2 1 1 1 1 2 2 3 3 4 4 4 4 4 4 3 3 4 3 3 3
9 7 6 5 5 5 6 5 5 4 4 5 4 4 5 5 5 5 5 4 4 4 4 3 2 3 3 3 3 3 3 3 3 4 4 4 3 3 3 4 3 3 3 4
Wind_Direction
293 299 17 31 18 31 79 141 156 153 139 153 149 137 128 124 120 115 109 103 97 94 90 86 83 80 80 79 77 79 80 79 76 75 74 73 70 68 67 70 79 83 88 83
338 2 59 48 25 32 50 57 89 101 89 115 117 115 118 122 121 114 111 107 105 102 96 91 89 89 87 84 81 82 84 83 81 79 77 74 72 68 67 67 70 79 89 92
327 320 72 41 5 24 41 31 83 106 119 126 119 116 119 123 122 121 121 117 112 107 102 98 94 93 89 86 83 81 83 83 82 83 81 77 77 72 70 69 75 85 100 109
13 36 67 106 337 63 73 47 64 98 109 107 103 92 83 100 113 113 113 110 105 100 97 92 91 89 87 82 80 80 79 78 80 84 82 77 73 69 62 61 74 95 137 155
74 72 109 22 350 353 91 55 66 113 113 113 114 91 69 76 98 106 106 105 103 103 102 97 95 96 91 84 83 84 85 86 87 87 86 83 77 61 39 53 28 318 205 175
71 86 103 309 312 315 113 98 77 127 134 140 138 121 125 107 102 101 100 101 103 99 95 93 93 93 90 91 92 97 103 102 96 98 104 105 103 69 26 41 1 349 350 220
69 88 57 305 321 9 120 199 172 142 144 146 114 118 124 117 107 106 104 103 102 99 97 104 103 92 92 100 110 121 110 95 88 93 117 118 88 56 45 40 30 18 15 9
79 79 271 312 16 74 163 124 114 108 106 108 108 111 115 115 113 111 107 103 102 98 95 96 103 103 103 116 146 121 107 96 83 79 100 103 81 58 50 50 43 28 27 19
138 183 232 22 85 108 118 110 110 113 118 122 119 120 118 116 116 116 113 108 102 105 98 90 105 117 119 154 139 115 108 111 120 76 65 81 96 89 61 52 56 40 33 21
83 85 88 79 83 85 95 105 110 119 122 120 119 121 119 119 118 116 115 118 117 114 110 111 121 120 139 151 131 121 121 154 171 103 75 72 89 100 93 76 62 43 29 9
99 125 87 65 90 100 98 105 110 112 113 118 121 123 123 122 124 124 123 125 125 129 133 147 144 136 160 154 126 113 108 317 338 138 131 107 89 90 116 135 155 142 121 322
184 189 145 149 133 118 115 120 123 119 109 112 119 122 120 121 126 127 128 130 133 143 152 168 159 161 188 173 141 128 74 34 79 121 130 130 120 75 45 113 127 143 173 239
137 126 119 122 114 109 114 118 119 118 122 121 119 123 122 123 128 129 129 137 148 157 160 160 155 172 206 194 160 145 151 173 158 137 143 155 149 150 166 336 330 310 306 320
118 108 99 109 115 113 115 114 110 108 113 117 120 120 118 118 121 126 139 151 147 142 140 138 132 175 234 186 143 142 154 166 156 153 153 160 162 165 159 161 318 318 315 315
123 120 127 121 113 113 115 116 113 114 114 113 117 120 123 125 131 135 137 127 112 108 113 114 100 316 293 126 123 134 151 161 145 137 138 136 138 137 138 145 143 326 332 332
120 117 121 123 126 126 125 125 125 128 125 123 124 130 133 130 123 115 115 116 112 115 121 116 105 314 340 101 116 112 153 157 138 130 125 122 124 126 130 128 96 353 339 328
132 138 139 139 140 140 139 139 138 137 133 132 136 133 124 115 110 113 123 133 136 145 149 145 253 331 29 101 131 145 140 133 128 125 136 136 133 137 143 141 141 328 317 320
150 151 152 150 149 144 142 140 138 136 139 141 135 129 127 132 148 166 167 141 114 98 177 230 279 338 12 71 112 157 157 154 147 148 146 139 136 139 139 140 134 66 330 334
137 141 144 143 143 141 141 140 141 141 141 136 134 139 146 158 168 169 151 137 139 177 267 291 352 31 24 6 17 159 145 145 145 141 139 136 128 128 134 139 148 219 328 334
137 141 142 140 138 139 141 142 142 141 142 137 135 139 151 168 164 153 144 157 200 214 233 242 53 47 30 349 16 90 129 140 144 143 136 134 138 143 148 158 171 218 329 330
140 141 142 142 141 143 145 145 142 144 147 144 147 158 170 178 167 154 144 175 255 244 201 134 96 68 11 347 14 80 127 140 143 145 143 142 143 145 151 165 178 226 310 330
142 142 144 143 140 142 145 145 145 148 149 153 159 159 157 162 162 161 178 194 218 173 128 116 112 49 9 19 38 76 120 136 139 138 139 143 142 142 148 156 167 189 7 1
142 142 143 144 145 145 143 145 149 151 155 161 165 166 170 178 169 154 188 232 196 148 131 154 172 48 37 38 39 85 116 131 138 141 145 148 150 151 153 157 162 142 81 39
139 141 143 142 136 136 145 156 155 157 161 165 172 170 160 154 168 198 184 180 175 160 164 205 196 50 49 45 71 95 105 120 133 141 140 140 143 146 150 152 146 129 101 83
142 141 141 141 143 151 160 159 149 152 154 164 177 173 165 163 169 186 184 185 184 179 200 235 244 72 54 48 108 118 116 122 133 140 143 144 145 147 150 149 144 133 114 96
145 148 152 156 156 155 154 148 150 160 158 167 185 176 167 168 167 168 179 195 203 207 215 237 234 199 194 189 171 151 135 121 114 124 140 145 144 141 143 145 138 128 116 109
142 143 144 147 154 156 154 155 161 174 176 173 184 186 173 170 175 184 191 202 210 219 226 226 212 189 180 172 163 159 153 147 140 137 140 141 141 142 145 141 135 125 118 115